Location: Asheville, NC
(35.6000°N, 82.5500°W)
Time: 06:32:33
(UTC-05:00)

N. Korean satellite - Pass Details

Date: 14 February 2018
Orbit: 459 x 514 km, 97.2° (Epoch: 24 February)

Event Time Altitude Azimuth Distance (km) Brightness Sun altitude
Rises 06:17:22 0° 31° (NNE) 2,551 10.6 -12.9°
Reaches altitude 10° 06:19:58 10° 51° (NE) 1,678 9.9 -12.4°
Maximum altitude 06:22:27 17° 95° (E) 1,289 10.0 -11.9°
Drops below altitude 10° 06:24:56 10° 138° (SE) 1,690 10.1 -11.4°
Sets 06:27:33 0° 159° (SSE) 2,578 10.7 -10.9°
